Retour au catalogue

FENGYUN 1C DEB

ActifPO
NORAD 31541·DEBRIS·🇨🇳 China

Lancé May 10, 1999 depuis Taiyuan Satellite Launch Center

Loading…

Prochains Passages (prochaines 24 heures)

TLE

FraisSource: Space-Track

Époque: Sep 14, 2026, 17:52 UTC

1 31541U 99025BYG 26257.74479900  .00003467  00000-0  53904-3 0  9995
2 31541  99.0072  73.5403 0075147 104.2137 256.7430 14.71917033 24725

Suivez FENGYUN 1C DEB en temps réel avec AllMySat

Download on the App Store